Regional Weather Roundup
Issued by NWS

Home | Current Version | Previous Version | Graphics & Text | Print | Product List | Glossary On
Versions: 1 2 3 4 5 6 7 8 9 10 11 12 13 14 15 16 17 18 19 20 21 22 23 24 25 26 27 28 29 30 31 32 33 34 35 36 37 38 39 40 41 42 43 44 45 46 47 48 49 50
000
ASUS45 KTFX 042304
RWRMT
MONTANA HOURLY WEATHER ROUNDUP
NATIONAL WEATHER SERVICE GREAT FALLS MT
404 PM MST WED MAR 4 2015

NOTE: "FAIR" INDICATES FEW OR NO CLOUDS BELOW 12000 FEET WITH NO
SIGNIFICANT WEATHER AND/OR OBSTRUCTIONS TO VISIBILITY.

* THESE STATIONS ARE NOT UNDER NWS QUALITY CONTROL. THEY DO NOT
   REPORT WEATHER SUCH AS PRECIPITATION OR FOG.

MTZ001>007-043-050000-
WEST OF THE DIVIDE
CITY           SKY/WX    TMP DP  RH WIND       PRES   REMARKS
* ANACONDA     SUNNY     30  10  43 N7         N/A   WCI  23
* ESSEX        N/A       32   7  35 SE6G12     N/A   WCI  26
* LINCOLN      N/A       33   3  28 W5G16      N/A   WCI  28
* LOOKOUT PASS N/A       32   7  35 E4G9       N/A
* POLSON       N/A       38  13  36 S3G9       N/A
* RONAN APT    SUNNY     37  10  33 SE6        N/A   WCI  32
* SEELEY LAKE  N/A       35   5  28 W8G15      N/A   WCI  28
* THOMP F APT  SUNNY     29   1  30 S9G17      N/A   WCI  21
$$

MTZ008-052>055-050000-
SOUTHWEST MONTANA
CITY           SKY/WX    TMP DP  RH WIND       PRES   REMARKS
* W YELLOWSTON SUNNY     26   1  34 SW5G15     N/A   WCI  20
* THREE FORKS  SUNNY     37   3  24 SW8        N/A   WCI  31
* BOULDER HILL N/A       33  -2  22 SW6        N/A   WCI  27
* MONIDA PASS  N/A       27   1  32 S4G11      N/A
* RAYNOLDS PAS N/A       27  11  51 SW5G10     N/A   WCI  21
* WHITEHALL    N/A       39   4  23 SW17G27    N/A   WCI  30
* WISE RIVER   N/A       34   0  23 W14G22     N/A   WCI  24
$$

MTZ009>010-012-014-046-048-049-054-050000-
EAST SLOPES AND CENTRAL MONTANA
CITY           SKY/WX    TMP DP  RH WIND       PRES   REMARKS
* DEARBORN     N/A       35  10  35 S11G17     N/A   WCI  27
* EAST GLACIER N/A       27   5  39 W29G37     N/A   WCI  11
* MONARCH      N/A       26  -1  31 SW18G24    N/A   WCI  13
* PENDROY      N/A       34  10  37 S6         N/A   WCI  29
* ROGERS PASS  N/A       26   5  40 SE18G27    N/A   WCI  13
* SWEET GRASS  N/A       36   8  31 W9G15      N/A   WCI  29
$$

MTZ011-013-016-021-035-040-045-047-050-051-050000-
NORTH CENTRAL MONTANA
CITY           SKY/WX    TMP DP  RH WIND       PRES   REMARKS
* CHESTER      N/A       35   0  22 SW9G15     N/A   WCI  28
* DENTON       N/A       32   4  30 N/A        N/A
* GEYSER       N/A       33   5  30 W17        N/A   WCI  22
* JUDITH GAP   N/A       24   4  42 VRB7       N/A   WCI  16
* LOMA         N/A       37  11  34 SE7G12     N/A   WCI  32
$$

MTZ017>020-022>027-061-062-050000-
NORTHEAST MONTANA
CITY           SKY/WX    TMP DP  RH WIND       PRES   REMARKS
JORDAN         SUNNY     23  -4  30 VRB3      30.16F
* BEAVER HILL  N/A       12  -7  42 SW9G17     N/A
* CIRCLE       N/A       18   0  45 W5G12      N/A   WCI  11
* NAVAJO       N/A        6  -8  52 SW6G12     N/A   WCI  -5
* SACO         N/A       20  -4  34 SW2        N/A
$$

MTZ028>042-056>058-050000-
SOUTHCENTRAL AND SOUTHEAST MONTANA
CITY           SKY/WX    TMP DP  RH WIND       PRES   REMARKS
* LAUREL APT   SUNNY     30   7  38 S8         N/A   WCI  22
* ROUNDUP APT  SUNNY     34  -2  21 N/A        N/A
* ALZADA       N/A       15  -2  47 W8         N/A   WCI   4
* HYSHAM       N/A       24  -4  29 W9         N/A   WCI  14
* REED POINT   N/A       34   9  35 W22G31     N/A   WCI  22
* ROSCOE HILL  N/A       21  -1  38 E9         N/A   WCI  11
$$

REGIONAL REPORTS...DAKOTAS
CITY           SKY/WX    TMP DP  RH WIND       PRES   REMARKS
BUFFALO SD     SUNNY     16  -6  37 NW20      30.12S WCI  -1
$$

REGIONAL REPORTS...WYOMING/IDAHO/WASHINGTON
CITY           SKY/WX    TMP DP  RH WIND       PRES   REMARKS
YELLOWSTONE LA SUNNY     21  -6  30 VRB5      30.05S WCI  14

$$



USA.gov is the U.S. government's official web portal to all federal, state and local government web resources and services.